Torna al catalogo

STARLINK-3591

AttivoComunicazioniVLEO
NORAD 51870·PAYLOAD·🇺🇸 United States

Lanciato Mar 3, 2022 da Cape Canaveral Space Force Station

Loading…

Prossimi Passaggi (prossime 24 ore)

TLE

AggiornatoSource: CelesTrak SupGP

Epoca: Sep 14, 2026, 22:00 UTC

1 51870C 22022U   26257.91715278  .00016575  00000+0  47407-3 0  2576
2 51870  53.1580 229.5322 0001344  92.2659 334.3469 15.35399475    19

Traccia STARLINK-3591 in tempo reale con AllMySat

Download on the App Store